THORAD DELTA 1 DEB

Satellite information

Favourite Embed

Satellite Type and Status

DEBRISIN ORBIT

Key statistics

Satellite THORAD DELTA 1 DEB at a glance.

Uptime

18497

Days in orbit

Revolutions

≈ 14.5

Per day

Orbit

SSO

Sun Synchronous Orbit

Inclination

102.9

Latest

Satellite identification and parameters

Extended collection of information and parameters for THORAD DELTA 1 DEB.

Object identification

Identified? True

Debris? True

Object name: THORAD DELTA 1 DEB

International designator: 1974-089BJ

Object number (NORAD): 8301

Object ID (CCSDS): 8301

Country: UNITED STATES OF AMERICA (US)

Current information (Y/N): Y

RCS size: SMALL

Orbital parameters

Period: 99.088 minutes

Inclination: 102.9429 deg

SMA: 7093.161 km

Apoapsis: 810.243 km

Periapsis: 619.809 km

RAAN: 130.5601 deg

Eccentricy: 0.0134238

Argument of periapsis: 192.4622 deg

Mean anomaly: 167.3225 deg

Mean motion: 14.53259123 rev/day

Mean motion (dot): 0.00019208 rev/day2

B* drag term: 0.0041173 1/REarth

Two-line elements (TLE)

Creation date: July 6, 2025, 6:05 p.m.

Reference frame: TEME

Reference center: EARTH

Epoch: July 6, 2025, 8:11 a.m. UTC

TLE line 0: 0 THORAD DELTA 1 DEB

TLE line 1: 1 08301U 74089BJ 25187.34122656 .00019208 00000-0 41173-2 0 9990

TLE line 2: 2 08301 102.9429 130.5601 0134238 192.4622 167.3225 14.53259123497982

Live tracking on map

Real-time ground track for satellite THORAD DELTA 1 DEB.

In-orbit conjunctions

A list of the most updated potential collisions computed for object THORAD DELTA 1 DEB.

Target Orbit TCA Probability of collision Miss distance Type
EXPLORER 25 (INJUN-4) HEO 2025-06-12 17:44:29 0.0007621379 83.0 (m) PAYLOAD
COSMOS 1275 DEB LEO 2024-11-16 14:51:31 0.0001532486 770.0 (m) DEBRIS

Associated space launch

Meteorological satellite using radiometric imaging

THORAD DELTA 1 DEB was lifted into orbit during the mission ‘Delta 2310 | NOAA 4’, on board a Delta 2310 space rocket.

The launch took place on Nov. 15, 1974, 5:11 p.m. from Space Launch Complex 2W.

For more information about the launch, click the button.

Launch to space Delta 2310 | NOAA 4
Delta 2310 | NOAA 4

Agency: N/A

Status: Launch Successful

Launch date: Nov. 15, 1974, 5:11 p.m. UTC

Rocket: Delta 2310

Launch pad: Space Launch Complex 2W

Location: Vandenberg SFB, CA, USA

...

Latest news about this satellite

There are no fresh news available about this satellite. Check back as we update our databases every day.


Newsletter sign-up

Weekly statistics, charts and insights to help you stay on top of the space industry.